Regional Weather Roundup
Issued by NWS

Home | Current Version | Previous Version | Text Only | Print | Product List | Glossary On
Versions: 1 2 3 4 5 6 7 8 9 10 11 12 13 14 15 16 17 18 19 20 21 22 23 24 25 26 27 28 29 30 31 32 33 34 35 36 37 38 39 40 41 42 43 44 45 46 47 48 49 50
000
ASUS45 KCYS 260410
RWRWY

WYOMING REGIONAL WEATHER ROUNDUP
NATIONAL WEATHER SERVICE CHEYENNE WY
1000 PM MDT SAT APR 25 2015

NOTE:  "FAIR" INDICATES FEW OR NO CLOUDS BELOW 12,000 FEET
WITH NO SIGNIFICANT WEATHER AND/OR OBSTRUCTIONS TO VISIBILITY.

WYZ001-260500-
YELLOWSTONE NATIONAL PARK

CITY           SKY/WX    TMP DP  RH WIND       PRES   REMARKS
LK YELLOWSTONE   N/A     32  26  78 CALM      29.84R
W YELLOWSTONE  NOT AVBL

$$
WYZ002>013-054>058-071-098>099-260500-
NORTHERN WYOMING

CITY           SKY/WX    TMP DP  RH WIND       PRES   REMARKS
JACKSON        CLOUDY    39  28  65 CALM      29.77S
CODY           CLOUDY    43  32  65 N10       29.85S
GREYBULL       FAIR      47  32  56 NW14      29.80S
WORLAND        MOCLDY    47  35  63 N9        29.81R
SHERIDAN       CLOUDY    41  34  76 N3        29.90F
BUFFALO        CLOUDY    40  34  79 N7        29.91R
GILLETTE       CLOUDY    42  35  76 NE8       29.91R
HULETT         CLOUDY    39  37  93 N6        29.92R FOG     WCI  35
NEWCASTLE      MOCLDY    45  43  93 W5        29.85R

$$
WYZ014>020-022>026-101>103-260500-
CENTRAL WYOMING

CITY           SKY/WX    TMP DP  RH WIND       PRES   REMARKS
BIG PINEY      CLOUDY    45  24  43 S15G25    29.77R
PINEDALE       CLOUDY    39  32  75 CALM      29.77S
DUBOIS         FAIR      37  30  75 SE14      29.79S WCI  29
LANDER         CLOUDY    45  35  68 N8        29.79R
RIVERTON       CLOUDY    42  38  85 NE10      29.80R
CASPER         CLOUDY    43  33  68 NE16      29.86R
DOUGLAS        MOCLDY    45  38  76 N8        29.87R

$$
WYZ021-027>030-104>119-260500-
SOUTHERN WYOMING

CITY           SKY/WX    TMP DP  RH WIND       PRES   REMARKS
EVANSTON       LGT RAIN  36  34  92 N9        29.75R WCI  29
KEMMERER       LGT RAIN  36  34  93 N8        29.77S WCI  29
FORT BRIDGER   CLOUDY    39  39 100 N3        29.77S
ROCK SPRINGS   LGT RAIN  43  32  65 E12       29.76R
DIXON          CLOUDY    47  34  61 S22       29.82R
RAWLINS        FAIR      36  25  64 E7        29.79S WCI  30
SARATOGA       FAIR      39  30  70 MISG      29.80F
LARAMIE        LGT RAIN  43  35  73 CALM      29.83R
CHEYENNE       LGT RAIN  45  39  79 E12       29.82R
TORRINGTON     CLOUDY    52  41  66 NW3       29.77S
PINE BLUFFS    CLOUDY    46  41  81 E18G24    29.80F

$$



USA.gov is the U.S. government's official web portal to all federal, state and local government web resources and services.